Change the Weather History Date:

Friday, September 27, 2013

  Actual Average (KPRN) Record (KPRN)
Temperature  
Mean Temperature 72 °F -  
Max Temperature 84 °F 83 °F 99 °F (1954)
Min Temperature 60 °F 62 °F 47 °F (1940)
Cooling Degree Days 7    
Growing Degree Days 22 (Base 50)    
Moisture  
Dew Point 61 °F    
Average Humidity 83    
Maximum Humidity 94    
Minimum Humidity 44    
Precipitation  
Precipitation 0.01 in - - ()
Sea Level Pressure  
Sea Level Pressure 30.03 in    
Wind  
Wind Speed 1 mph (ENE)    
Max Wind Speed 9 mph    
Max Gust Speed -    
Visibility 5 miles    
Events      
Averages and records for this station are not official NWS values.
T = Trace of Precipitation, MM = Missing Value Source: NWS Daily Summary

Daily Weather History Graph

Daily Weather History Graph

Search for Another Location

Airport or City:

Trip Planner

Search our weather history database for the weather conditions in past years. The results will help you decide how hot, cold, wet, or windy it might be!

Date:

Astronomy

Sep. 27, 2013 Rise Set
Actual Time 6:39 AM CDT 6:37 PM CDT
Civil Twilight 6:15 AM CDT 7:02 PM CDT
Nautical Twilight 5:47 AM CDT 7:30 PM CDT
Astronomical Twilight 5:18 AM CDT 7:58 PM CDT
Moon No Moon Rise 1:56 PM CDT (9/27)
Length of Visible Light 12h 46m
Length of Day
11h 58m
Last Quarter, 45% of the Moon is Illuminated
Sep 27
Last Quarter
Oct 4
New
Oct 11
First Quarter
Oct 18
Full
Oct 26
Last Quarter

Hourly Weather History & Observations

Time (CDT) Temp. Heat Index Dew Point Humidity Pressure Visibility Wind Dir Wind Speed Gust Speed Precip Events Conditions
12:26 AM 64.4 °F - 62.6 °F 94% 30.00 in 2.5 mi Calm Calm - N/A   Clear
12:46 AM 64.4 °F - 62.6 °F 94% 30.00 in 1.2 mi Calm Calm - N/A   Clear
1:10 AM 64.4 °F - 62.6 °F 94% 30.00 in 2.0 mi Calm Calm - N/A   Mist
1:28 AM 64.4 °F - 62.6 °F 94% 30.00 in 1.8 mi Calm Calm - N/A   Clear
1:53 AM 64.0 °F - 62.1 °F 93% 29.99 in 2.5 mi Calm Calm - N/A   Clear
2:07 AM 62.6 °F - 60.8 °F 94% 30.00 in 1.8 mi Calm Calm - N/A   Scattered Clouds
2:11 AM 62.6 °F - 60.8 °F 94% 30.00 in 0.8 mi Calm Calm - N/A   Mist
2:53 AM 63.0 °F - 61.0 °F 93% 29.99 in 1.2 mi Calm Calm - N/A   Scattered Clouds
3:03 AM 62.6 °F - 60.8 °F 94% 30.00 in 2.0 mi Calm Calm - N/A   Clear
3:20 AM 62.6 °F - 60.8 °F 94% 30.00 in 1.0 mi Calm Calm - N/A   Clear
3:31 AM 62.6 °F - 60.8 °F 94% 30.00 in 3.0 mi Calm Calm - N/A   Clear
3:40 AM 62.6 °F - 60.8 °F 94% 30.00 in 1.8 mi Calm Calm - N/A   Clear
3:53 AM 62.1 °F - 60.1 °F 93% 29.99 in 1.8 mi Calm Calm - N/A   Scattered Clouds
4:33 AM 60.8 °F - 59.0 °F 94% 30.00 in 0.8 mi Calm Calm - N/A   Mist
4:43 AM 62.6 °F - 59.0 °F 88% 30.01 in 1.2 mi Calm Calm - 0.01 in   Partly Cloudy
4:53 AM 61.0 °F - 59.0 °F 93% 30.00 in 2.0 mi Calm Calm - 0.01 in   Partly Cloudy
5:07 AM 60.8 °F - 59.0 °F 94% 30.02 in 1.5 mi Calm Calm - N/A   Clear
5:20 AM 60.8 °F - 59.0 °F 94% 30.02 in 3.0 mi Calm Calm - N/A   Clear
5:53 AM 61.0 °F - 57.9 °F 90% 30.02 in 3.0 mi Calm Calm - N/A   Clear
6:08 AM 60.8 °F - 57.2 °F 88% 30.04 in 2.5 mi Calm Calm - N/A   Clear
6:17 AM 60.8 °F - 59.0 °F 94% 30.04 in 3.0 mi Calm Calm - N/A   Clear
6:43 AM 60.8 °F - 57.2 °F 88% 30.05 in 2.0 mi Calm Calm - N/A   Clear
6:53 AM 61.0 °F - 59.0 °F 93% 30.05 in 1.5 mi Calm Calm - N/A   Clear
7:13 AM 60.8 °F - 59.0 °F 94% 30.06 in 2.5 mi Calm Calm - N/A   Clear
7:34 AM 64.4 °F - 60.8 °F 88% 30.07 in 3.0 mi Calm Calm - N/A   Clear
7:53 AM 66.0 °F - 62.1 °F 87% 30.07 in 6.0 mi Calm Calm - N/A   Clear
8:53 AM 71.1 °F - 64.9 °F 81% 30.09 in 10.0 mi Calm Calm - N/A   Clear
9:53 AM 75.9 °F - 64.0 °F 67% 30.09 in 10.0 mi East 6.9 mph - N/A   Clear
10:53 AM 80.1 °F 81.5 °F 63.0 °F 56% 30.09 in 10.0 mi ESE 9.2 mph - N/A   Partly Cloudy
11:53 AM 80.1 °F 81.2 °F 62.1 °F 54% 30.07 in 10.0 mi ENE 8.1 mph - N/A   Clear
12:53 PM 82.0 °F 83.0 °F 62.1 °F 51% 30.05 in 10.0 mi ENE 6.9 mph - N/A   Clear
1:53 PM 82.9 °F 83.7 °F 62.1 °F 49% 30.03 in 10.0 mi Variable 6.9 mph - N/A   Partly Cloudy
2:53 PM 84.9 °F 85.0 °F 61.0 °F 44% 30.01 in 10.0 mi East 3.5 mph - N/A   Partly Cloudy
3:53 PM 84.0 °F 84.0 °F 60.1 °F 44% 30.01 in 10.0 mi NE 8.1 mph - N/A   Partly Cloudy
4:53 PM 84.0 °F 84.4 °F 61.0 °F 46% 30.01 in 10.0 mi NE 4.6 mph - N/A   Mostly Cloudy
5:53 PM 79.0 °F - 62.1 °F 56% 30.02 in 10.0 mi NE 4.6 mph - N/A   Partly Cloudy
6:53 PM 70.0 °F - 64.9 °F 84% 30.03 in 10.0 mi Calm Calm - N/A   Clear
7:53 PM 66.9 °F - 64.0 °F 90% 30.04 in 8.0 mi Calm Calm - N/A   Clear
8:53 PM 66.0 °F - 63.0 °F 90% 30.06 in 7.0 mi Calm Calm - N/A   Clear
9:53 PM 64.0 °F - 62.1 °F 93% 30.07 in 5.0 mi Calm Calm - N/A   Clear
10:53 PM 63.0 °F - 60.1 °F 90% 30.08 in 5.0 mi Calm Calm - N/A   Clear
11:53 PM 62.1 °F - 59.0 °F 90% 30.07 in 4.0 mi Calm Calm - N/A   Clear